Location: Erdweis
(48.5167°N, 15.3500°E)
Time: 10:09:11
(UTC+00:00)

Daily predictions for brighter satellites

Satellite Brightness Start Highest point End
(mag) Time Altitude Azimuth Time Altitude Azimuth Time Altitude Azimuth
Cosmos 1975 Rocket 3.3 17:29:58 10° N 17:34:11 46° ENE 17:38:20 10° SSE
COSMO-SKYMED 1 3.2 17:32:58 10° N 17:37:17 62° WNW 17:41:34 10° SSW
Cosmos 2084 Rocket 3.6 17:33:14 10° NW 17:37:41 88° SW 17:42:12 10° SE
H-2A R/B 2.1 17:36:01 10° SSE 17:40:52 59° ENE 17:45:53 10° N
ARGOS 3.4 17:36:09 10° SE 17:41:15 48° ENE 17:46:25 10° N
CZ-2C R/B 3.8 17:38:41 10° NE 17:43:01 23° E 17:47:22 10° SE
CENTAUR R/B 3.9 17:36:16 10° NW 17:43:21 39° NNE 17:51:16 10° E
Resurs 01 Rocket 3.7 17:42:53 10° ENE 17:44:05 11° NE 17:45:17 10° NE
ATLAS 5 CENTAUR R/B 2.4 17:41:40 10° NW 17:44:20 67° SW 17:51:42 10° SE
Cosmos 1707 3.5 17:42:10 10° N 17:45:38 31° ENE 17:49:05 10° SE
Cosmos 1743 3.9 17:43:42 10° SSW 17:47:26 48° WNW 17:51:10 10° N
Iridium 4 Rocket 3.5 17:43:11 10° S 17:48:06 86° E 17:53:32 10° N
ATLAS 3B R/B 4.2 17:43:27 10° NW 17:48:45 24° NNE 17:54:11 10° ENE
SJ-6B 4.0 17:46:28 10° ESE 17:49:25 23° ENE 17:52:24 10° NNE
Sich 1 Rocket 4.1 17:45:23 10° SSE 17:49:34 39° E 17:53:48 10° NNE
USA 238 DEB 4.3 17:44:37 10° NW 17:51:27 47° NE 17:58:11 12° ESE
USA 238 4.3 17:44:43 10° NW 17:51:33 46° NE 17:58:16 12° ESE
ATLAS CENTAUR R/B 3.8 17:51:06 10° W 17:53:57 19° NW 17:56:43 10° NNE
Cosmos 2263 Rocket 2.1 17:50:44 10° SSW 17:56:16 75° ESE 18:01:53 10° NNE
Meteor 2-9 Rocket 4.3 17:53:17 10° S 17:59:09 81° E 18:04:58 10° NNE
USA 102 4.4 17:54:11 10° SSE 18:00:08 84° WSW 18:03:50 10° NNW
SL-08 RB Rocket 4.0 17:56:32 10° SE 18:00:56 48° ENE 18:05:20 10° N
CZ-2C R/B 3.4 17:58:40 10° S 18:03:53 72° WSW 18:09:26 10° NNW
Cosmos 1844 Rocket 3.8 17:59:58 10° SSE 18:03:59 21° E 18:08:02 10° NE
SJ 16-02 2.8 18:00:48 10° SW 18:04:57 42° WNW 18:09:09 10° N
Cosmos 990 Rocket 4.2 18:00:05 10° SSW 18:05:13 76° WNW 18:10:24 10° NNE
Cosmos 2227 4.3 18:00:07 10° SSW 18:05:52 88° WNW 18:11:38 10° NNE
Cosmos 1464 Rocket 4.2 18:00:17 10° SSE 18:06:07 48° E 18:12:00 10° NNE
ISS -2.4 18:04:19 10° SSW 18:07:01 22° SE 18:08:15 18° ESE
Abrixas rocket 1.7 18:06:41 10° WSW 18:09:31 73° SSE 18:11:14 21° E
Okean 2 Rocket 3.5 18:05:34 10° SSE 18:09:47 41° E 18:14:00 10° NNE
Cosmos 1943 3.6 18:04:48 10° NNW 18:10:24 65° WSW 18:15:59 10° SSE
Lacrosse 5 rocket 2.7 18:10:18 10° W 18:14:19 38° NNW 18:18:31 10° NE
Meteor 1-12 Rocket 4.4 18:09:44 10° S 18:15:27 53° E 18:21:06 10° NNE
Ariane Rocket 3.1 18:10:39 10° SSE 18:15:35 57° ENE 18:20:35 10° N
Cosmos 1437 4.1 18:15:16 10° NNW 18:18:06 38° W 18:20:55 10° SSW
NOSS 3-2 (A) 4.1 18:12:43 10° NW 18:20:00 65° NE 18:26:32 17° ESE
NOSS 2-2 (C) 3.2 18:17:40 10° SSW 18:21:04 49° SE 18:24:50 10° NE
Resurs 1-3 4.5 18:20:34 20° ESE 18:22:42 31° ENE 18:26:36 10° N
Cosmos 1300 Rocket 3.6 18:18:47 10° S 18:23:03 53° E 18:27:22 10° NNE
Cosmos 2298 Rocket 4.5 18:18:53 10° S 18:23:47 38° ESE 18:28:42 10° NE
SPOT 3 Rocket 4.2 18:22:58 19° ESE 18:25:55 35° ENE 18:30:34 10° N
MetOp-A 4.2 18:22:26 11° SSE 18:27:25 58° ENE 18:32:40 10° N
Cosmos 1898 Rocket 4.4 18:27:24 10° SW 18:32:25 51° WNW 18:37:30 10° NNE
Cosmos 1891 Rocket 4.4 18:27:39 10° S 18:33:48 80° E 18:39:54 10° N
Cosmos 1867 3.8 18:28:42 10° NW 18:34:09 71° SW 18:38:37 15° SSE
Cosmos 1536 Rocket 3.5 18:33:51 10° N 18:38:17 64° ENE 18:41:16 20° SSE
USA 234 3.6 18:35:01 10° ENE 18:41:09 41° SE 18:47:15 10° SSW
Cosmos 1626 3.8 18:41:10 10° NNE 18:43:18 19° NE 18:43:18 19° NE
Meteor 2-5 Rocket 4.2 18:40:33 10° N 18:45:52 41° ENE 18:48:05 29° ESE
DMSP B5D2-2 4.1 18:41:01 10° NNE 18:46:17 62° ESE 18:51:30 10° S
CREW DRAGON DEMO-1 DEB 3.5 18:44:26 10° WNW 18:47:22 45° N 18:47:59 38° NE
Cosmos 2151 Rocket 3.5 18:46:30 10° S 18:50:55 76° E 18:55:25 10° NNE
USA 186 2.7 18:48:48 15° S 18:51:06 46° W 18:54:14 10° NNW
Cosmos 372 Rocket 3.9 18:46:10 10° SSW 18:51:26 90° ESE 18:56:42 10° NNE
Cosmos 1025 Rocket 3.3 18:47:54 10° NNW 18:52:16 71° W 18:56:09 13° S
Cosmos 2150 Rocket 4.0 18:48:33 10° S 18:53:50 63° ESE 18:59:13 10° NNE
NOSS 3-2 (C) 4.1 18:46:48 10° NW 18:54:07 67° NE 18:58:44 28° ESE
Nadezhda 4 Rocket 3.9 18:52:53 10° N 18:59:03 88° W 19:04:42 12° S
Cosmos 1805 3.9 19:00:43 37° ENE 19:00:43 37° ENE 19:03:37 10° NNE
OBJECT-B 0.6 19:01:23 80° SE 19:01:31 84° ENE 19:04:47 10° N
Cosmos 2034 Rocket 4.0 18:56:35 10° S 19:02:58 88° E 19:09:22 10° N
Cosmos 2082 Rocket 3.9 18:59:20 10° N 19:03:06 18° NE 19:04:43 16° ENE
Cosmos 1125 Rocket 3.6 18:59:41 10° S 19:04:49 52° ESE 19:09:59 10° NNE
FREGAT/IRIS 3.7 19:05:31 34° WSW 19:05:43 35° W 19:08:11 10° NNW
Exosat Rocket 3.7 19:00:46 10° S 19:06:13 51° ESE 19:11:03 10° NE
Cosmos 1674 2.6 19:05:13 10° N 19:09:06 89° E 19:09:42 62° S
COSMOS 2406 4.0 19:05:58 10° NNW 19:11:08 34° NE 19:12:17 32° ENE
Meteor 1-24 Rocket 3.9 19:07:45 10° N 19:13:06 51° ENE 19:14:11 45° ESE
ERS-1 Rocket 4.4 19:17:24 23° NE 19:17:24 23° NE 19:21:01 10° N
SL-14 R/B 4.3 19:13:27 10° N 19:16:10 34° NE 19:16:10 34° NE
NOSS 2-2 (E) 4.4 19:15:06 10° WSW 19:18:30 42° NW 19:22:31 10° NNE
Resurs 01 Rocket 1.5 19:19:17 65° SE 19:19:47 74° ENE 19:24:15 10° N
H-2A R/B 4.4 19:17:05 10° SW 19:20:44 20° W 19:24:27 10° NW
ATLAS 2AS CENTAUR R/B 3.7 19:16:00 10° S 19:24:48 33° E 19:30:05 10° NE
CZ-2C R/B 3.2 19:18:16 10° N 19:23:41 62° WNW 19:29:11 10° SSW
SJ-6B 4.3 19:21:47 18° SSW 19:23:56 31° W 19:27:20 10° NNW
Landsat 7 4.3 19:25:47 44° ENE 19:25:47 44° ENE 19:30:05 10° N
Lacrosse 4 Rocket 3.6 19:23:46 10° N 19:25:54 15° NNE 19:25:54 15° NNE
KORONAS-FOTON 4.2 19:22:49 10° NNW 19:26:43 60° W 19:27:14 54° SW
NOSS 2-2 (D) 4.3 19:23:32 10° WSW 19:26:56 43° NW 19:30:53 10° NNE
Cosmos 1766 4.2 19:33:40 39° NNE 19:33:40 39° NNE 19:36:14 10° N
SPOT 1/Viking Rocket 4.0 19:33:46 45° ENE 19:33:46 45° ENE 19:38:31 10° N
CENTAUR R/B 3.1 19:26:59 10° NW 19:35:02 88° SW 19:38:32 42° SE
Cosmos 1844 3.5 19:29:35 10° SSW 19:35:18 81° ESE 19:40:59 10° NNE
IGS 5A 4.3 19:37:09 40° NNE 19:37:09 40° NNE 19:40:07 10° N
Cosmos 1634 Rocket 3.8 19:34:23 42° S 19:36:34 74° E 19:42:46 10° NNE
ARIANE 5 R/B 2.9 19:37:42 56° NNE 19:37:42 56° NNE 19:41:23 10° N
Cosmos 2263 Rocket 4.4 19:36:20 10° W 19:40:49 24° NW 19:45:19 10° N
ATLAS 3B R/B 3.2 19:34:30 10° NW 19:41:06 48° NE 19:42:49 41° ENE
Cosmos 1269 Rocket 3.9 19:35:53 10° NNW 19:41:14 76° ENE 19:41:30 74° E
Cosmos 2285 Rocket 3.9 19:35:12 10° SSW 19:41:30 85° ESE 19:47:54 10° NNE
MetOp-B 4.0 19:41:10 71° SE 19:41:43 80° ENE 19:47:05 10° NNW
USA 238 DEB 4.2 19:35:39 10° NW 19:42:43 59° WSW 19:45:37 37° S
USA 238 4.2 19:35:45 10° NW 19:42:49 60° WSW 19:45:42 37° S
ISS -1.4 19:40:10 10° WSW 19:41:14 19° WSW 19:41:14 19° WSW
Cosmos 1844 Rocket 2.9 19:41:45 10° SW 19:47:18 70° WNW 19:52:54 10° NNE
Spot 2 Rocket 3.6 19:48:07 63° NE 19:48:07 63° NE 19:52:44 10° N
Okean 1 Rocket 3.7 19:51:22 49° WSW 19:52:03 56° WNW 19:56:30 10° N
Lacrosse 5 rocket 3.2 19:50:37 10° WNW 19:54:26 27° N 19:55:13 26° NNE
Cosmos 2026 Rocket 4.4 19:58:41 10° NNW 20:04:57 62° W 20:06:56 43° SSW
Meteor 2-19 Rocket 4.3 19:59:37 10° N 20:05:39 75° ENE 20:05:39 75° ENE
Cosmos 1833 Rocket 2.9 20:02:42 10° NNW 20:07:46 58° NNE 20:07:46 58° NNE
Cosmos 2251 Rocket 4.5 20:08:47 10° NNW 20:12:49 40° NNE 20:12:49 40° NNE
Terra 3.3 20:19:13 29° NNE 20:19:13 29° NNE 20:21:49 10° N
Cosmos 1626 4.4 20:15:59 10° NNW 20:17:51 23° NW 20:17:51 23° NW
Cosmos 2279 Rocket 3.9 20:20:51 84° W 20:20:53 84° W 20:27:13 10° N
USA 234 3.3 20:19:22 18° NE 20:24:28 77° NNW 20:31:01 10° WSW
SPOT 5 3.9 20:40:09 45° NNW 20:40:09 45° NNW 20:43:49 10° NNW
Cosmos 2082 Rocket 3.0 20:42:35 10° NNW 20:46:33 46° N 20:46:33 46° N
ERS-1 Rocket 4.4 20:57:24 36° NW 20:57:24 36° NW 21:00:31 10° NNW
COSMOS 2406 4.2 20:50:12 10° NW 20:54:20 41° WNW 20:54:20 41° WNW
Resurs 01 Rocket 4.3 20:56:51 14° W 20:56:51 14° W 20:59:05 10° WNW
Lacrosse 4 Rocket 4.2 21:01:22 10° NNW 21:02:11 16° NNW 21:02:11 16° NNW
ATLAS 2AS CENTAUR R/B 3.1 21:11:59 56° WSW 21:13:41 71° NW 21:21:33 10° NE
Cosmos 2278 Rocket 3.9 21:22:33 26° NNE 21:22:33 26° NNE 21:24:57 10° NNE
CENTAUR R/B 4.5 21:18:32 10° WNW 21:25:10 27° WSW 21:25:44 27° WSW
ATLAS 3B R/B 3.6 21:25:17 10° NW 21:30:03 41° WNW 21:30:03 41° WNW
Lacrosse 5 rocket 4.4 21:30:09 10° NW 21:30:50 14° NW 21:30:50 14° NW
USA 234 4.1 22:00:56 10° ENE 22:07:04 45° N 22:13:13 10° W
Cosmos 1943 Rocket 4.5 22:35:46 18° NNE 22:35:46 18° NNE 22:37:07 10° NNE
Cosmos 2369 Rocket 4.4 22:59:19 20° NNE 22:59:19 20° NNE 23:01:01 10° NNE
CZ-4C R/B 4.1 23:02:00 27° NNE 23:02:00 27° NNE 23:05:14 10° NE
ATLAS 2AS CENTAUR R/B 4.4 22:59:08 10° W 23:06:02 32° NNW 23:12:48 10° NE
Cosmos 2227 Rocket 4.2 23:38:57 10° N 23:43:29 24° NE 23:43:30 24° NE
USA 234 4.1 23:43:13 10° E 23:49:23 46° N 23:55:33 10° WNW
